This is the latest recevied weather packets stored in our database for station/object OE2SWM. If no packets are shown the sender has not sent any weather packets the latest 1 day(s).
| Time | Temp. | Humidity | Pressure | Rain* | Wind** | Luminosity | Snow |
|---|---|---|---|---|---|---|---|
| 1778067000 | 18.89° C | 49% | 963 hPa | 0 mm | - | - | - |
| 1778066400 | 20° C | 50% | 963 hPa | 0 mm | - | - | - |
| 1778065800 | 18.89° C | 51% | 963 hPa | 0 mm | - | - | - |
| 1778065200 | 18.89° C | 52% | 963 hPa | 0 mm | - | - | - |
| 1778064600 | 18.89° C | 54% | 963 hPa | 0 mm | - | - | - |
| 1778063400 | 16.67° C | 58% | 963 hPa | 0 mm | - | - | - |
| 1778062800 | 15.56° C | 59% | 964 hPa | 0 mm | - | - | - |
| 1778062200 | 15.56° C | 64% | 964 hPa | 0 mm | - | - | - |
| 1778061600 | 13.89° C | 65% | 964 hPa | 0 mm | - | - | - |
| 1778061000 | 15° C | 65% | 964 hPa | 0 mm | - | - | - |
| 1778060400 | 13.89° C | 69% | 964 hPa | 0 mm | - | - | - |
| 1778059800 | 12.78° C | 69% | 964 hPa | 0 mm | - | - | - |
| 1778059200 | 12.78° C | 70% | 964 hPa | 0 mm | - | - | - |
| 1778058600 | 11.67° C | 71% | 964 hPa | 0 mm | - | - | - |
| 1778058000 | 12.78° C | 71% | 964 hPa | 0 mm | - | - | - |
| 1778057400 | 12.78° C | 70% | 964 hPa | 0 mm | - | - | - |
| 1778056800 | 11.67° C | 73% | 964 hPa | 0 mm | - | - | - |
| 1778056200 | 11.67° C | 74% | 964 hPa | 0 mm | - | - | - |
| 1778055600 | 10.56° C | 74% | 964 hPa | 0 mm | - | - | - |
| 1778053800 | 10.56° C | 75% | 964 hPa | 0 mm | - | - | - |
| 1778052600 | 10° C | 79% | 965 hPa | 0 mm | - | - | - |
| 1778052000 | 10° C | 78% | 964 hPa | 0 mm | - | - | - |
| 1778051400 | 10° C | 77% | 965 hPa | 0 mm | - | - | - |
| 1778050800 | 10° C | 77% | 965 hPa | 0 mm | - | - | - |
| 1778050200 | 10° C | 77% | 965 hPa | 0 mm | - | - | - |
* Rain latest hour (hover to see other rain measurements)
** Current wind speed in m/s (hover to see current wind gust speed)